{"data":{"norad_id":65050,"epoch":"2026-09-21T13:30:25.215840Z","epoch_age_seconds":76359,"freshness":"FRESH","line1":"1 65050U 25162H   26264.56279185 -.00000077  00000+0  10192-3 0  9995","line2":"2 65050  50.0022 279.8480 0000736 292.9521  67.1273 13.29330400 56182","mean_motion":13.293304,"eccentricity":7.36e-5,"inclination_deg":50.0022,"raan_deg":279.848,"arg_perigee_deg":292.9521,"mean_anomaly_deg":67.1273,"bstar":0.00010192,"rev_number":5618,"period_min":108.32521395734,"perigee_km":1148.7359429771,"apogee_km":1149.8439802259,"semimajor_km":7527.4269616015,"source":"CELESTRAK","updated_at":"2026-09-22T09:00:30.091696Z"}}